sat.trackr.live / text

‹ back to catalog

ZHONGXING-2D

NORAD 43920 · 2019-001A

PAYLOAD ACTIVE UNKNOWN

§ Identity

Operator
Country
PRC
Launch date
2019-01-10
Launch site
XICLF
Launch vehicle
Mass (kg)
RCS (m²)

Purposes: comms

External: N2YO · Heavens-Above · Gunter

§ Orbital elements

Epoch: 2026-09-20T00:25:53.397696Z

Period
1,436.12 min
Inclination
0.0242°
Eccentricity
0.0001284
Mean motion
1.00269946 rev/d
Perigee alt
35,781.7 km
Apogee alt
35,792.5 km
Semi-major
42,165.2 km
B*
0.0000e+0
RAAN
331.5332°
Arg perigee
334.9228°
Mean anomaly
188.9601°
Rev number
5,503

§ Raw data

ZHONGXING-2D1 43920U 19001A   26263.01797914 -.00000341  00000+0  00000+0 0  99932 43920   0.0242 331.5332 0001284 334.9228 188.9601  1.00269946 55037

JSON: /api/v1/satellites/43920 · /tle

For live sub-satellite position, see the globe view (requires WebGL).

§ Visibility from observer

Set your observer location to see the next 7 days of passes ≥ 10°. The values pass through the URL so the page stays shareable.

No JS? Fill the form by hand. The geolocation button needs JavaScript.